This demonstration page uses our WeatherBlox Daily Observations layout. Learn more.

Left ArrowRight Arrow

47.50024, -111.30081

Hourly Observations for November 26, 2015

Temp ( °F °C ) Dew Point ( °F °C ) Humidity (%) Winds ( mph kmh ) Pressure ( in mb ) Visibility ( mi km ) Precip ( " mm )
12:53 am 00:53 Clear 1 -17.2 -4 -20 79 79 SSW 12 19 30.59 1036 10 16 0.00 0.00
1:53 am 01:53 Clear -1 -18.3 -5 -20.6 82 82 SW 8 13 30.60 1036 10 16 0.00 0.00
2:53 am 02:53 Clear -1 -18.3 -7 -21.7 75 75 SW 10 17 30.61 1037 10 16 0.00 0.00
3:53 am 03:53 Clear 1 -17.2 -4 -20 79 79 SSW 15 24 30.62 1037 10 16 0.00 0.00
4:53 am 04:53 Clear 2 -16.7 -4 -20 76 76 SW 13 20 30.66 1038 10 16 0.00 0.00
5:53 am 05:53 Clear 2 -16.7 -5 -20.6 72 72 SW 13 20 30.68 1039 10 16 0.00 0.00
6:53 am 06:53 Clear 3 -16.1 -4 -20 72 72 SW 13 20 30.70 1040 10 16 0.00 0.00
7:53 am 07:53 Sunny 1 -17.2 -5 -20.6 75 75 SSW 12 19 30.71 1040 10 16 0.00 0.00
8:53 am 08:53 Sunny 0 -17.8 -6 -21.1 76 76 SW 7 11 30.74 1041 10 16 0.00 0.00
9:53 am 09:53 Mostly Cloudy 8 -13.3 0 -17.8 69 69 SW 8 13 30.73 1041 10 16 0.00 0.00
10:53 am 10:53 Sunny 10 -12.2 2 -16.7 69 69 SW 7 11 30.75 1041 10 16 0.00 0.00
11:53 am 11:53 Sunny 11 -11.7 3 -16.1 70 70 SW 7 11 30.73 1041 10 16 0.00 0.00
12:53 pm 12:53 Sunny 15 -9.4 5 -15 64 64 S 3 6 30.71 1040 10 16 0.00 0.00
1:53 pm 13:53 Sunny 17 -8.3 7 -13.9 64 64 SSW 6 9 30.71 1040 10 16 0.00 0.00
2:53 pm 14:53 Sunny 16 -8.9 7 -13.9 67 67 SSW 7 11 30.70 1040 10 16 0.00 0.00
3:53 pm 15:53 Sunny 11 -11.7 4 -15.6 73 73 S 7 11 30.71 1040 10 16 0.00 0.00
4:53 pm 16:53 Clear 4 -15.6 -1 -18.3 80 80 SSW 9 15 30.71 1040 10 16 0.00 0.00
5:53 pm 17:53 Clear 3 -16.1 -1 -18.3 83 83 SSW 12 19 30.70 1040 10 16 0.00 0.00
6:53 pm 18:53 Clear 2 -16.7 -2 -18.9 83 83 SSW 10 17 30.70 1040 10 16 0.00 0.00
7:53 pm 19:53 Clear 6 -14.4 0 -17.8 76 76 Calm 30.68 1039 10 16 0.00 0.00
8:53 pm 20:53 Clear 5 -15 0 -17.8 79 79 S 8 13 30.69 1039 10 16 0.00 0.00
9:53 pm 21:53 Clear 8 -13.3 1 -17.2 73 73 SSW 12 19 30.66 1038 10 16 0.00 0.00
10:53 pm 22:53 Clear 11 -11.7 1 -17.2 64 64 S 12 19 30.64 1038 10 16 0.00 0.00
11:53 pm 23:53 Clear 9 -12.8 2 -16.7 73 73 SSW 15 24 30.63 1037 10 16 0.00 0.00

Powered by AerisWeather